DateTimeUTC,F1_A11,F1_S11,BsB_S11,BsG_S11,BsR_S11,BbsB_S11,BbsG_S11,BbsR_S11,BaB_A11,BaG_A11,BaR_A11,Tu_S11,T_S11,Uu_S11,U_S11,P_S11,T1_A11
2021-05-27T04:00:00Z,00000200,20000000,,,,,,,0000.00,-000.14,0000.16,17.4,24.2,09.9,06.5,0679.0,30.9
2021-05-27T04:01:00Z,00000200,20000000,,,,,,,0000.17,-000.07,-000.00,17.4,24.2,09.9,06.5,0679.0,30.9
2021-05-27T04:02:00Z,00000200,20000000,,,,,,,0000.18,0000.53,-000.06,17.4,24.2,09.9,06.5,0679.0,30.9
2021-05-27T04:03:00Z,00000200,60000000,,,,,,,-000.07,0000.34,0000.38,17.4,24.2,09.9,06.5,0679.0,30.9
2021-05-27T04:04:00Z,00000200,40000000,0000.51,0000.31,0000.03,0000.18,0000.30,0000.49,-000.15,-000.26,-000.10,17.5,24.0,10.0,06.7,0679.9,30.9
2021-05-27T04:05:00Z,00000200,00000000,-000.25,0000.25,-000.22,0000.34,0000.23,-000.21,0000.29,-000.24,-000.40,17.6,24.0,09.9,06.7,0680.0,30.9
2021-05-27T04:06:00Z,00000200,00000000,-000.04,-000.03,-000.34,0000.80,-000.05,-000.06,-000.16,0000.09,0000.14,17.6,24.0,09.9,06.7,0680.0,30.9
2021-05-27T04:07:00Z,00000200,00000000,-000.78,0000.22,0000.11,0000.26,0000.15,-000.02,-000.12,-000.39,-000.21,17.6,23.9,09.7,06.6,0680.0,30.9
2021-05-27T04:08:00Z,00000200,00000000,0000.03,0000.17,0000.05,-000.13,0000.17,0000.13,-000.05,0000.08,-000.04,17.6,24.0,09.8,06.6,0680.0,30.9
2021-05-27T04:09:00Z,00000200,00000000,-000.03,0000.31,0000.19,0000.33,0000.29,-000.09,-000.36,-000.07,-000.02,17.6,24.0,09.7,06.5,0680.0,30.9
2021-05-27T04:10:00Z,00000200,00000000,-000.08,0000.07,0000.08,-000.04,0000.28,-000.03,-000.07,-000.01,0000.01,17.6,24.0,09.7,06.5,0680.0,30.9
2021-05-27T04:11:00Z,00000200,00000000,0000.07,0000.29,0000.05,-000.02,0000.45,-000.04,0000.32,-000.20,0000.13,17.6,24.0,09.6,06.5,0680.0,30.9
2021-05-27T04:12:00Z,00000200,00000000,0000.26,0000.34,-000.01,0000.26,0000.28,0000.15,0000.12,0000.44,0000.12,17.6,24.0,09.6,06.5,0680.0,30.9
2021-05-27T04:13:00Z,00000200,00000000,0000.65,0000.01,0000.13,0000.30,0000.16,0000.33,-000.04,-000.47,-000.45,17.6,23.9,09.6,06.5,0680.0,30.9
2021-05-27T04:14:00Z,00000200,00000000,0000.45,0000.00,-000.08,0000.09,0000.15,0000.06,-000.46,0000.01,0000.20,17.6,23.9,09.3,06.3,0680.0,30.9
2021-05-27T04:15:00Z,00000200,00000000,-000.24,0000.38,0000.04,0000.35,0000.32,-000.12,-000.13,-000.20,-000.38,17.6,23.9,09.2,06.3,0680.0,30.9
2021-05-27T04:16:00Z,00000200,00000000,0000.25,0000.30,-000.06,0000.41,0000.08,0000.09,-000.13,-000.12,-000.15,17.6,23.9,09.1,06.2,0680.0,30.9
2021-05-27T04:17:00Z,00000200,00000000,-000.45,0000.24,-000.01,0000.23,0000.23,-000.09,0000.21,0000.24,0000.38,17.6,23.9,09.2,06.2,0680.0,30.9
2021-05-27T04:18:00Z,00000200,00000000,-000.18,0000.39,0000.22,0000.25,0000.19,0000.08,0000.05,0000.31,0000.08,17.6,23.9,09.3,06.3,0680.0,30.9
2021-05-27T04:19:00Z,00000200,00000000,0000.57,0000.05,-000.14,0000.06,-000.07,-000.15,0000.18,-000.18,-000.10,17.6,23.9,09.2,06.3,0680.0,30.9
2021-05-27T04:20:00Z,00000200,00000000,0000.30,0000.13,0000.19,-000.16,0000.13,0000.14,0000.24,0000.24,0000.25,17.6,24.0,09.3,06.3,0680.0,30.9
2021-05-27T04:21:00Z,00000200,00000000,0000.55,0000.32,-000.02,0000.33,0000.27,0000.23,-000.07,-000.22,-000.07,17.6,23.9,09.4,06.4,0680.0,30.9
2021-05-27T04:22:00Z,00000200,00000000,-000.08,0000.40,0000.02,-000.25,0000.22,0000.17,0000.36,0000.45,0000.37,17.6,23.9,09.5,06.4,0679.9,30.9
2021-05-27T04:23:00Z,00000200,00000000,-000.26,0000.23,-000.10,-000.38,0000.05,-000.20,0000.35,0000.30,0000.27,17.6,23.9,09.6,06.5,0679.9,30.9
2021-05-27T04:24:00Z,00000200,00000000,0000.24,0000.02,0000.13,-000.17,0000.26,0000.30,0000.14,0000.35,0000.39,17.6,23.9,09.8,06.6,0680.0,30.9
2021-05-27T04:25:00Z,00000200,00000000,-000.11,0000.37,0000.07,0000.21,0000.24,-000.06,-000.27,0000.06,-000.24,17.6,23.9,09.9,06.7,0680.0,30.9
2021-05-27T04:26:00Z,00000200,00000000,0000.05,-000.18,0000.20,0000.50,0000.05,-000.29,0000.29,0000.19,0000.84,17.6,23.9,10.0,06.7,0680.0,30.9
2021-05-27T04:27:00Z,00000200,00000000,0000.10,0000.07,0000.29,0000.29,0000.17,0000.22,0000.58,0000.13,-000.00,17.6,23.9,10.0,06.8,0680.0,30.9
2021-05-27T04:28:00Z,00000200,00000000,-000.08,0000.23,0000.06,0000.16,0000.11,0000.02,-000.01,0000.25,-000.04,17.6,23.9,10.2,06.9,0679.9,30.9
2021-05-27T04:29:00Z,00000200,00000000,-000.13,-000.02,-000.03,-000.14,0000.05,0000.00,0000.53,0000.45,0000.55,17.6,23.9,10.3,07.0,0680.0,30.9
2021-05-27T04:30:00Z,00000200,00000000,0000.20,0000.03,-000.20,0000.07,0000.11,0000.22,-000.14,0000.21,-000.02,17.6,23.9,10.3,07.0,0679.9,30.9
2021-05-27T04:31:00Z,00000200,00000000,0000.47,0000.21,0000.15,-000.47,-000.07,0000.07,0000.32,-000.23,0000.38,17.6,23.9,10.5,07.1,0679.9,30.9
2021-05-27T04:32:00Z,00000200,00000000,0000.68,0000.37,0000.07,0000.03,-000.05,0000.08,0000.05,0000.69,-000.18,17.6,23.9,10.5,07.1,0679.9,30.9
2021-05-27T04:33:00Z,00000200,00000000,0000.08,0000.12,-000.09,-000.66,0000.26,0000.01,0000.08,-000.27,0000.25,17.6,23.9,10.6,07.2,0679.9,30.9
2021-05-27T04:34:00Z,00000200,00000000,-000.39,0000.13,-000.14,0000.32,0000.17,-000.01,0000.20,0000.39,0000.16,17.6,23.9,10.7,07.3,0680.0,30.9
2021-05-27T04:35:00Z,00000200,00000000,0000.06,0000.20,-000.15,-000.01,0000.10,-000.17,0000.18,0000.25,-000.07,17.6,23.9,10.6,07.2,0680.0,30.9
2021-05-27T04:36:00Z,00000200,00000000,0000.13,0000.16,-000.11,0000.01,0000.07,0000.18,0000.05,-000.21,-000.29,17.6,23.9,10.7,07.3,0680.0,30.9
2021-05-27T04:37:00Z,00000200,00000000,0000.02,0000.21,0000.03,0000.36,0000.06,-000.01,-000.06,0000.03,0000.38,17.6,23.9,10.7,07.3,0680.0,30.9
2021-05-27T04:38:00Z,00000200,00000000,-000.12,0000.21,-000.18,-000.16,0000.26,0000.05,0000.08,-000.06,0000.50,17.6,23.9,10.7,07.3,0680.0,30.9
2021-05-27T04:39:00Z,00000200,00000000,-000.04,0000.12,0000.04,-000.54,0000.06,-000.42,-000.05,0000.14,-000.30,17.7,23.9,10.7,07.3,0680.0,30.9
2021-05-27T04:40:00Z,00000200,00000000,0000.40,0000.11,0000.17,-000.33,0000.05,-000.01,0000.30,0000.32,0000.11,17.6,23.9,10.8,07.3,0680.0,30.9
2021-05-27T04:41:00Z,00000200,00000000,-000.99,0000.35,-000.13,-000.25,0000.14,-000.16,-000.25,-000.28,0000.18,17.7,23.9,10.7,07.3,0680.0,30.9
2021-05-27T04:42:00Z,00000200,00000000,0000.26,0000.25,0000.06,0000.09,0000.18,0000.00,0000.39,0000.24,0000.19,17.6,23.9,10.8,07.4,0680.0,30.9
2021-05-27T04:43:00Z,00000200,00000000,0000.13,0000.19,-000.20,0000.32,0000.29,-000.05,-000.03,0000.02,-000.24,17.7,23.9,10.7,07.3,0680.0,30.9
2021-05-27T04:44:00Z,00000200,00000000,0000.02,0000.34,0000.32,0000.05,0000.31,0000.33,0000.10,-000.01,0000.05,17.7,23.9,10.7,07.3,0680.0,30.9
2021-05-27T04:45:00Z,00000200,00000000,-000.65,0000.11,0000.00,0000.19,0000.14,0000.01,-000.22,-000.01,0000.14,17.7,23.9,10.7,07.3,0680.0,30.9
2021-05-27T04:46:00Z,00000200,00000000,-000.22,0000.08,0000.11,-000.29,0000.10,0000.01,0000.45,-000.05,0000.29,17.7,23.9,10.7,07.3,0680.0,30.9
2021-05-27T04:47:00Z,00000200,00000000,0000.25,0000.31,0000.13,0000.17,-000.06,0000.03,-000.10,0000.27,-000.16,17.7,23.9,10.7,07.3,0680.0,30.9
2021-05-27T04:48:00Z,00000200,00000000,-000.38,0000.11,0000.23,-000.13,0000.14,0000.43,0000.34,0000.07,0000.07,17.7,23.9,10.8,07.3,0680.0,30.9
2021-05-27T04:49:00Z,00000200,00000000,-000.05,0000.13,0000.02,-000.22,0000.30,0000.20,-000.07,0000.37,0000.34,17.7,23.9,10.7,07.3,0680.0,30.9
2021-05-27T04:50:00Z,00000200,00000000,-000.14,0000.29,-000.03,0000.16,0000.27,0000.43,-000.04,-000.11,-000.36,17.7,23.9,10.8,07.3,0680.0,30.9
2021-05-27T04:51:00Z,00000200,00000000,-000.25,0000.41,0000.10,0000.54,0000.22,-000.02,-000.21,-000.29,0000.17,17.7,23.9,10.8,07.3,0680.0,30.9
2021-05-27T04:52:00Z,00000200,00000000,0000.09,0000.10,-000.04,0000.09,0000.22,0000.16,0000.09,-000.03,-000.11,17.7,23.9,10.7,07.3,0680.0,30.9
2021-05-27T04:53:00Z,00000200,00000000,0000.85,-000.11,0000.07,0000.01,-000.17,0000.29,-000.02,0000.30,-000.14,17.7,23.9,10.8,07.3,0680.0,30.9
2021-05-27T04:54:00Z,00000200,00000000,0000.14,0000.09,-000.31,0000.21,0000.15,-000.17,0000.03,-000.12,0000.18,17.7,23.9,10.7,07.3,0679.9,30.9
2021-05-27T04:55:00Z,00000200,00000000,0000.44,0000.17,0000.26,-000.02,-000.09,0000.21,0000.43,0000.20,0000.35,17.7,23.9,10.7,07.3,0679.9,30.9
2021-05-27T04:56:00Z,00000200,00000000,0000.10,0000.28,0000.04,0000.60,0000.08,0000.06,-000.21,-000.15,0000.09,17.7,23.9,10.8,07.3,0680.0,30.9
2021-05-27T04:57:00Z,00000200,40000000,,,,,,,-000.00,-000.18,-000.26,17.7,24.0,10.9,07.4,0680.0,30.9
2021-05-27T04:58:00Z,00000200,60000000,,,,,,,-000.21,0000.03,-000.18,17.5,24.1,10.6,07.1,0678.9,30.9
2021-05-27T04:59:00Z,00000200,20000000,,,,,,,-000.21,-000.03,0000.03,17.5,24.2,10.6,07.0,0678.9,30.9
